Starlink 31791

operational
NORAD ID: 59637 Int'l Des: 2024-082 Owner: SPXS Country: US Constellation: starlink
LEOCIRCULAR

Über Starlink 31791

Beschreibung wird geladen...

Live-Position

3D-Globus wird geladen...

Nächste Überflüge

Höhenverlauf

Altitude vs Time

uPlot chart will show altitude changes over time

Zweizeiliger Elementsatz

1 59637U 24082G 25352.66934819 -.00001968 00000-0 -62014-4 0 9992
2 59637 43.0000 237.1392 0001178 283.0256 77.0464 15.27572268 92429
Epoch: 18. Dez. 2025 • Age: 15 hours

Aktueller Status

Höhe 494.9 km
Geschwindigkeit 7.62 km/s
Subsatellitenpunkt -41.10°S, 75.55°W
Startdatum 3. Mai 2024
Alter 1.6 years
Typ internet

Technische Details

Klassifizierung Payload
Masse 730.00 kg
Trockenmasse 700.00 kg
Gesamtmasse 730.00 kg
Länge 0.30 m
Durchmesser 4.10 m
Spannweite 29.00 m
Form Box + pan
Hersteller SPXS
Bus-Typ Starlink V2M
Phasenstatus In Orbit
Besitzer/Staat SPXS/US

Große Konstellationen

Loading constellations...